| time (UTC) | temp C | wind direction | speed KPH | gust KPH | rain 1hr cm | rain 24hr cm | rain mn cm | humidity % | barometer mb |
| 20260504151016 | 22 | 230 | 6.4 | 12.9 | 0.00 | 0.00 | 0.00 | 62 | 1012.4 |
| 20260504141029 | 20 | 195 | 6.4 | 12.9 | 0.00 | 0.00 | 0.00 | 67 | 1012.9 |
| 20260504081021 | 15 | 189 | 4.8 | 4.8 | 0.00 | 0.00 | 0.00 | 69 | 1012.2 |
| 20260504045018 | 15 | 201 | 3.2 | 6.4 | 0.00 | 0.00 | 0.00 | 60 | 1013.9 |
| 20260504044044 | 15 | 196 | 3.2 | 6.4 | 0.00 | 0.00 | 0.00 | 60 | 1013.9 |
| 20260504043029 | 15 | 188 | 3.2 | 6.4 | 0.00 | 0.00 | 0.00 | 59 | 1014.0 |
| 20260504042016 | 15 | 200 | 3.2 | 6.4 | 0.00 | 0.00 | 0.00 | 59 | 1014.2 |
| 20260504041021 | 15 | 196 | 1.6 | 4.8 | 0.00 | 0.00 | 0.00 | 59 | 1014.2 |
| 20260504040026 | 15 | 211 | 1.6 | 6.4 | 0.00 | 0.00 | 0.00 | 60 | 1014.4 |
| 20260504035031 | 15 | 195 | 1.6 | 4.8 | 0.00 | 0.00 | 0.00 | 60 | 1014.4 |
| 20260504034018 | 15 | 207 | 0.0 | 4.8 | 0.00 | 0.00 | 0.00 | 60 | 1014.4 |
| 20260504033024 | 15 | 284 | 0.0 | 1.6 | 0.00 | 0.00 | 0.00 | 60 | 1014.6 |
| 20260504032029 | 15 | 350 | 0.0 | 1.6 | 0.00 | 0.00 | 0.00 | 60 | 1014.6 |
| 20260504031017 | 15 | 0.0 | 1.6 | 0.00 | 0.00 | 0.00 | 59 | 1014.6 | |
| 20260504030021 | 15 | 62 | 0.0 | 1.6 | 0.00 | 0.00 | 0.00 | 59 | 1014.6 |
| 20260504025027 | 16 | 132 | 0.0 | 1.6 | 0.00 | 0.00 | 0.00 | 57 | 1014.5 |
| 20260504024031 | 16 | 198 | 0.0 | 4.8 | 0.00 | 0.00 | 0.00 | 57 | 1014.6 |
| 20260504023040 | 16 | 198 | 0.0 | 3.2 | 0.00 | 0.00 | 0.00 | 55 | 1014.5 |
| 20260504022044 | 17 | 204 | 0.0 | 3.2 | 0.00 | 0.00 | 0.00 | 54 | 1014.5 |
| 20260504021050 | 17 | 208 | 1.6 | 4.8 | 0.00 | 0.00 | 0.00 | 53 | 1014.4 |
| 20260504020037 | 17 | 206 | 3.2 | 6.4 | 0.00 | 0.00 | 0.00 | 52 | 1014.2 |
| 20260504015023 | 17 | 206 | 3.2 | 6.4 | 0.00 | 0.00 | 0.00 | 52 | 1014.2 |
| 20260504014027 | 17 | 207 | 3.2 | 4.8 | 0.00 | 0.00 | 0.00 | 52 | 1014.2 |
| 20260504013033 | 17 | 213 | 3.2 | 6.4 | 0.00 | 0.00 | 0.00 | 51 | 1014.1 |
| 20260504012021 | 17 | 221 | 3.2 | 11.3 | 0.00 | 0.00 | 0.00 | 50 | 1014.0 |
| 20260504011025 | 17 | 202 | 3.2 | 6.4 | 0.00 | 0.00 | 0.00 | 50 | 1013.9 |
| 20260504010030 | 18 | 188 | 3.2 | 9.7 | 0.00 | 0.00 | 0.00 | 47 | 1014.1 |
| 20260504005018 | 18 | 204 | 4.8 | 9.7 | 0.00 | 0.00 | 0.00 | 45 | 1014.3 |
| 20260504004023 | 19 | 212 | 3.2 | 11.3 | 0.00 | 0.00 | 0.00 | 46 | 1014.3 |
| 20260504003029 | 19 | 213 | 4.8 | 11.3 | 0.00 | 0.00 | 0.00 | 44 | 1014.3 |
| 20260504002016 | 20 | 205 | 4.8 | 11.3 | 0.00 | 0.00 | 0.00 | 44 | 1014.2 |
| 20260504001041 | 20 | 188 | 4.8 | 9.7 | 0.00 | 0.00 | 0.00 | 42 | 1014.3 |
| 20260504000026 | 20 | 218 | 4.8 | 11.3 | 0.00 | 0.00 | 0.00 | 42 | 1014.4 |
| 20260503235031 | 20 | 195 | 4.8 | 11.3 | 0.00 | 0.00 | 0.00 | 42 | 1014.3 |
| 20260503234019 | 20 | 188 | 6.4 | 12.9 | 0.00 | 0.00 | 0.00 | 41 | 1014.2 |
| 20260503233024 | 21 | 209 | 6.4 | 14.5 | 0.00 | 0.00 | 0.00 | 41 | 1014.5 |
| 20260503232029 | 21 | 234 | 6.4 | 16.1 | 0.00 | 0.00 | 0.00 | 40 | 1014.9 |
| 20260503231017 | 21 | 237 | 6.4 | 17.7 | 0.00 | 0.00 | 0.00 | 39 | 1014.8 |
| 20260503230022 | 21 | 203 | 6.4 | 17.7 | 0.00 | 0.00 | 0.00 | 40 | 1015.1 |
| 20260503225027 | 21 | 194 | 4.8 | 20.9 | 0.00 | 0.00 | 0.00 | 40 | 1015.2 |
| 20260503224032 | 21 | 223 | 8.0 | 24.1 | 0.00 | 0.00 | 0.00 | 39 | 1015.1 |
| 20260503223020 | 21 | 213 | 4.8 | 14.5 | 0.00 | 0.00 | 0.00 | 40 | 1015.3 |
| 20260503222045 | 21 | 175 | 6.4 | 14.5 | 0.00 | 0.00 | 0.00 | 41 | 1015.6 |
| 20260503221050 | 21 | 234 | 6.4 | 12.9 | 0.00 | 0.00 | 0.00 | 41 | 1015.7 |
| 20260503220017 | 21 | 221 | 8.0 | 17.7 | 0.00 | 0.00 | 0.00 | 41 | 1015.8 |
| 20260503215023 | 21 | 197 | 6.4 | 14.5 | 0.00 | 0.00 | 0.00 | 41 | 1016.1 |
| 20260503214124 | 21 | 222 | 6.4 | 12.9 | 0.00 | 0.00 | 0.00 | 41 | 1016.3 |
| 20260503213032 | 21 | 203 | 9.7 | 17.7 | 0.00 | 0.00 | 0.00 | 40 | 1016.5 |
| 20260503212021 | 21 | 225 | 4.8 | 12.9 | 0.00 | 0.00 | 0.00 | 42 | 1016.4 |
| 20260503211046 | 21 | 212 | 8.0 | 22.5 | 0.00 | 0.00 | 0.00 | 42 | 1017.1 |
| 20260503210030 | 21 | 227 | 11.3 | 22.5 | 0.00 | 0.00 | 0.00 | 42 | 1017.0 |
| 20260503205019 | 21 | 206 | 6.4 | 20.9 | 0.00 | 0.00 | 0.00 | 43 | 1017.1 |
| 20260503204023 | 21 | 188 | 8.0 | 24.1 | 0.00 | 0.00 | 0.00 | 43 | 1017.3 |
| 20260503203028 | 21 | 213 | 9.7 | 22.5 | 0.00 | 0.00 | 0.00 | 43 | 1017.7 |
| 20260503202017 | 21 | 231 | 8.0 | 22.5 | 0.00 | 0.00 | 0.00 | 43 | 1017.9 |
| 20260503201021 | 21 | 214 | 6.4 | 9.7 | 0.00 | 0.00 | 0.00 | 43 | 1018.1 |
| 20260503200027 | 20 | 212 | 8.0 | 17.7 | 0.00 | 0.00 | 0.00 | 42 | 1018.5 |
| 20260503195031 | 20 | 249 | 14.5 | 27.4 | 0.00 | 0.00 | 0.00 | 41 | 1018.6 |
| 20260503194019 | 20 | 203 | 6.4 | 12.9 | 0.00 | 0.00 | 0.00 | 44 | 1019.1 |
| 20260503193024 | 20 | 231 | 9.7 | 22.5 | 0.00 | 0.00 | 0.00 | 44 | 1019.0 |
| 20260503192029 | 20 | 243 | 6.4 | 14.5 | 0.00 | 0.00 | 0.00 | 46 | 1019.2 |
| 20260503191018 | 20 | 240 | 6.4 | 17.7 | 0.00 | 0.00 | 0.00 | 45 | 1019.4 |
| 20260503190022 | 20 | 227 | 4.8 | 11.3 | 0.00 | 0.00 | 0.00 | 47 | 1019.7 |
| 20260503185027 | 19 | 199 | 6.4 | 14.5 | 0.00 | 0.00 | 0.00 | 47 | 1019.9 |
| 20260503184033 | 19 | 244 | 11.3 | 22.5 | 0.00 | 0.00 | 0.00 | 47 | 1020.2 |
| 20260503183020 | 18 | 237 | 8.0 | 20.9 | 0.00 | 0.00 | 0.00 | 46 | 1020.6 |
| 20260503182025 | 19 | 264 | 11.3 | 24.1 | 0.00 | 0.00 | 0.00 | 46 | 1020.8 |
| 20260503181030 | 19 | 191 | 8.0 | 17.7 | 0.00 | 0.00 | 0.00 | 46 | 1020.7 |
| 20260503180018 | 18 | 252 | 4.8 | 16.1 | 0.00 | 0.00 | 0.00 | 47 | 1021.1 |
| 20260503175022 | 18 | 224 | 8.0 | 22.5 | 0.00 | 0.00 | 0.00 | 48 | 1021.1 |
| 20260503174109 | 18 | 263 | 4.8 | 14.5 | 0.00 | 0.00 | 0.00 | 48 | 1021.4 |
| 20260503173113 | 18 | 244 | 8.0 | 20.9 | 0.00 | 0.00 | 0.00 | 47 | 1021.2 |
| 20260503172021 | 17 | 205 | 4.8 | 11.3 | 0.00 | 0.00 | 0.00 | 49 | 1021.4 |
| 20260503171025 | 18 | 222 | 6.4 | 12.9 | 0.00 | 0.00 | 0.00 | 50 | 1021.4 |